Home > Weather > Vöcklabruck > Past weeks

Flag for Austria Weather for the Past 2 Weeks in Vöcklabruck, Upper Austria, Austria

Now
38 °F

Rain showers. Overcast.


Feels Like: 33 °F
Forecast: 23 / 39 °F
Wind: 7 mph from West

Location: Linz / Hoersching-Flughafen

Current Time: Feb 11, 2016 at 3:53:49 AM

Latest Report: Feb 11, 2016 at 3:00 AM


Visibility: 28 mi

Pressure: 29.69 "Hg

Humidity: 68%

Dew point: 28 °F

Location of VöcklabruckLocation

Historic Weather in Vöcklabruck — Graph

°F

Vöcklabruck Temperature Yesterday

Maximum temperature yesterday: 40 °F (at 3:00 PM)
Minimum temperature yesterday: 33 °F (at 6:00 AM)
Average temperature yesterday: 37 °F

High & Low Weather Summary for the Past Weeks

 TemperatureHumidityPressure
High56 °F (Feb 1, 4:00 PM)100% (Jan 27, 3:00 AM)30.47 "Hg (Jan 27, 3:00 AM)
Low26 °F (Jan 27, 8:00 AM)49% (Feb 8, 2:00 PM)29.23 "Hg (Feb 9, 10:00 PM)
Average41 °F84%30.07 "Hg
* Reported Jan 27 3:00 AM — Feb 11 2:00 AM, Vöcklabruck, Weather by CustomWeather, © 2016

Note: Actual official high and low records may vary slightly from our data, if they occured in-between our weather recording intervals... More about our weather records

Advertising

Vöcklabruck Weather History for the Previous 24 Hours

 ConditionsComfort  
Time TempWeatherWind HumidityBarometerVisibility
2:00 AM
Thu, Feb 11
38 °FLight rain. Low clouds.7 mph72%29.67 "Hg5 mi
1:00 AM37 °FOvercast.8 mph76%29.65 "Hg31 mi
12:00 AM37 °FRain showers. Overcast.9 mph80%29.64 "Hg11 mi
11:00 PM
Wed, Feb 10
35 °FLots of rain. Overcast.6 mph91%29.62 "Hg9 mi
10:00 PM37 °FLots of rain. Overcast.9 mph79%29.60 "Hg15 mi
9:00 PM38 °FRain showers. Overcast.12 mph75%29.59 "Hg18 mi
8:00 PM39 °FOvercast.8 mph71%29.57 "Hg31 mi
7:00 PM38 °FOvercast.8 mph73%29.55 "Hg31 mi
6:00 PM38 °FRain showers. Overcast.6 mph77%29.53 "Hg28 mi
5:00 PM39 °FOvercast.3 mph75%29.50 "Hg31 mi
4:00 PM39 °FOvercast.9 mph71%29.50 "Hg31 mi
3:00 PM40 °FOvercast.12 mph69%29.50 "Hg28 mi
2:00 PM38 °FOvercast.9 mph78%29.47 "Hg31 mi
1:00 PM38 °FOvercast.9 mph83%29.47 "Hg25 mi
12:00 PM37 °FOvercast.9 mph88%29.47 "Hg25 mi
11:00 AMN/APassing clouds.102 mphN/AN/A1 mi
10:00 AM36 °FLight rain. Overcast.7 mph92%29.44 "Hg9 mi
9:00 AM36 °FLight rain. Low clouds.7 mph92%29.44 "Hg12 mi
8:00 AM35 °FLight rain. Low clouds.5 mph94%29.44 "Hg8 mi
7:00 AM34 °FLight rain. Overcast.N/A95%29.41 "Hg9 mi
6:00 AM33 °FRain. Low clouds.6 mph97%29.41 "Hg4 mi
5:00 AM36 °FLight rain. Low clouds.9 mph92%29.41 "Hg6 mi
Weather by CustomWeather, © 2016

See weather overviewHow to use our weather pages